Time,TemperatureF,DewpointF,PressureIn,WindDirection,WindDirectionDegrees,WindSpeedMPH,WindSpeedGustMPH,Humidity,HourlyPrecipIn,Conditions,Clouds,dailyrainin,SolarRadiationWatts/m^2,SoftwareType,DateUTC
2013-03-09 00:04:00,46.5,45.7,30.16,SW,233,2.0,2.0,97,0.00,,,0.00,0,Wunderground v.1.15,2013-03-09 08:04:00,
2013-03-09 00:09:00,46.5,45.7,30.15,SW,216,6.0,6.0,97,0.00,,,0.00,0,Wunderground v.1.15,2013-03-09 08:09:00,
2013-03-09 00:15:00,46.5,45.7,30.15,WSW,243,2.0,6.0,97,0.00,,,0.00,0,Wunderground v.1.15,2013-03-09 08:15:00,
2013-03-09 00:20:00,46.5,45.7,30.16,SW,226,3.0,3.0,97,0.00,,,0.00,0,Wunderground v.1.15,2013-03-09 08:20:00,
2013-03-09 00:29:00,46.3,45.5,30.16,WSW,247,2.0,2.0,97,0.00,,,0.00,0,Wunderground v.1.15,2013-03-09 08:29:00,
2013-03-09 00:39:00,46.3,45.5,30.18,SSW,204,2.0,2.0,97,0.00,,,0.00,0,Wunderground v.1.15,2013-03-09 08:39:00,
2013-03-09 00:45:00,46.4,45.6,30.17,SW,230,2.0,2.0,97,0.00,,,0.00,0,Wunderground v.1.15,2013-03-09 08:45:00,
2013-03-09 00:50:00,46.4,45.6,30.18,SSW,201,2.0,2.0,97,0.00,,,0.00,0,Wunderground v.1.15,2013-03-09 08:50:00,
2013-03-09 00:59:00,46.4,45.6,30.18,SSW,206,1.0,1.0,97,0.00,,,0.00,0,Wunderground v.1.15,2013-03-09 08:59:00,
2013-03-09 01:10:00,46.3,45.2,30.18,SW,216,1.0,1.0,96,0.00,,,0.00,0,Wunderground v.1.15,2013-03-09 09:10:00,
2013-03-09 01:19:00,46.1,45.0,30.18,SW,216,0.0,0.0,96,0.00,,,0.00,0,Wunderground v.1.15,2013-03-09 09:19:00,
2013-03-09 01:29:00,46.1,45.0,30.18,SSW,210,8.0,8.0,96,0.00,,,0.00,0,Wunderground v.1.15,2013-03-09 09:29:00,
2013-03-09 01:35:00,46.1,44.7,30.19,SW,220,3.0,8.0,95,0.00,,,0.00,0,Wunderground v.1.15,2013-03-09 09:35:00,
2013-03-09 01:40:00,46.3,44.9,30.19,SSW,211,3.0,3.0,95,0.00,,,0.00,0,Wunderground v.1.15,2013-03-09 09:40:00,
2013-03-09 01:49:00,46.5,45.1,30.19,SSW,193,1.0,1.0,95,0.00,,,0.00,0,Wunderground v.1.15,2013-03-09 09:49:00,
2013-03-09 01:59:00,46.5,44.9,30.19,SSW,213,3.0,3.0,94,0.00,,,0.00,0,Wunderground v.1.15,2013-03-09 09:59:00,
2013-03-09 02:04:00,46.4,45.0,30.18,SSW,202,5.0,5.0,95,0.00,,,0.00,0,Wunderground v.1.15,2013-03-09 10:04:00,
2013-03-09 02:09:00,46.3,44.9,30.18,SW,226,1.0,1.0,95,0.00,,,0.00,0,Wunderground v.1.15,2013-03-09 10:09:00,
2013-03-09 02:19:00,46.1,44.7,30.18,SSW,209,5.0,5.0,95,0.00,,,0.00,0,Wunderground v.1.15,2013-03-09 10:19:00,
2013-03-09 02:25:00,46.2,44.8,30.18,SW,214,6.0,6.0,95,0.00,,,0.00,0,Wunderground v.1.15,2013-03-09 10:25:00,
2013-03-09 02:30:00,46.2,44.6,30.18,SW,221,1.0,1.0,94,0.00,,,0.00,0,Wunderground v.1.15,2013-03-09 10:30:00,
2013-03-09 02:39:00,46.1,44.7,30.18,SW,222,2.0,2.0,95,0.00,,,0.00,0,Wunderground v.1.15,2013-03-09 10:39:00,
2013-03-09 02:49:00,46.0,44.6,30.18,SSW,207,1.0,1.0,95,0.00,,,0.00,0,Wunderground v.1.15,2013-03-09 10:49:00,
2013-03-09 02:55:00,45.9,44.5,30.18,SSW,213,0.0,1.0,95,0.00,,,0.00,0,Wunderground v.1.15,2013-03-09 10:55:00,
2013-03-09 03:04:00,45.8,44.4,30.18,SSW,211,4.0,4.0,95,0.00,,,0.00,0,Wunderground v.1.15,2013-03-09 11:04:00,
2013-03-09 03:09:00,45.8,44.4,30.18,SSW,213,2.0,2.0,95,0.00,,,0.00,0,Wunderground v.1.15,2013-03-09 11:09:00,
2013-03-09 03:19:00,45.7,44.4,30.18,SSW,212,2.0,2.0,95,0.00,,,0.00,0,Wunderground v.1.15,2013-03-09 11:19:00,
2013-03-09 03:25:00,45.6,44.3,30.17,SSW,193,3.0,3.0,95,0.00,,,0.00,0,Wunderground v.1.15,2013-03-09 11:25:00,
2013-03-09 03:30:00,45.6,44.3,30.18,SSW,192,2.0,2.0,95,0.00,,,0.00,0,Wunderground v.1.15,2013-03-09 11:30:00,
2013-03-09 03:39:00,45.5,44.2,30.18,SW,215,2.0,2.0,95,0.00,,,0.00,0,Wunderground v.1.15,2013-03-09 11:39:00,
2013-03-09 03:49:00,45.3,44.0,30.18,SSW,203,1.0,1.0,95,0.00,,,0.00,0,Wunderground v.1.15,2013-03-09 11:49:00,
2013-03-09 03:54:00,45.2,43.9,30.19,South,189,2.0,2.0,95,0.00,,,0.00,0,Wunderground v.1.15,2013-03-09 11:54:00,
2013-03-09 03:59:00,45.0,43.7,30.19,SSW,199,0.0,0.0,95,0.00,,,0.00,0,Wunderground v.1.15,2013-03-09 11:59:00,
2013-03-09 04:09:00,44.6,43.0,30.20,SSE,166,2.0,2.0,94,0.00,,,0.00,0,Wunderground v.1.15,2013-03-09 12:09:00,
2013-03-09 04:15:00,44.6,43.3,30.20,South,187,0.0,2.0,95,0.00,,,0.00,0,Wunderground v.1.15,2013-03-09 12:15:00,
2013-03-09 04:20:00,44.5,43.2,30.21,South,187,0.0,0.0,95,0.00,,,0.00,0,Wunderground v.1.15,2013-03-09 12:20:00,
2013-03-09 04:29:00,44.4,43.1,30.21,SSW,210,0.0,0.0,95,0.00,,,0.00,0,Wunderground v.1.15,2013-03-09 12:29:00,
2013-03-09 04:39:00,44.4,43.3,30.22,SSW,195,0.0,0.0,96,0.00,,,0.00,0,Wunderground v.1.15,2013-03-09 12:39:00,
2013-03-09 04:45:00,44.4,43.3,30.22,SW,231,0.0,0.0,96,0.00,,,0.00,0,Wunderground v.1.15,2013-03-09 12:45:00,
2013-03-09 04:54:00,44.4,43.6,30.23,SSW,202,0.0,0.0,97,0.00,,,0.00,0,Wunderground v.1.15,2013-03-09 12:54:00,
2013-03-09 04:59:00,44.4,43.6,30.24,SSW,202,1.0,1.0,97,0.00,,,0.00,0,Wunderground v.1.15,2013-03-09 12:59:00,
2013-03-09 05:05:00,44.6,43.8,30.24,SSW,210,1.0,1.0,97,0.00,,,0.00,0,Wunderground v.1.15,2013-03-09 13:05:00,
2013-03-09 05:10:00,44.7,43.9,30.25,SSW,213,0.0,0.0,97,0.00,,,0.00,0,Wunderground v.1.15,2013-03-09 13:10:00,
2013-03-09 05:19:00,44.8,44.0,30.25,SW,221,1.0,1.0,97,0.00,,,0.00,0,Wunderground v.1.15,2013-03-09 13:19:00,
2013-03-09 05:29:00,44.8,44.0,30.26,SSW,195,0.0,0.0,97,0.00,,,0.00,0,Wunderground v.1.15,2013-03-09 13:29:00,
2013-03-09 05:34:00,44.7,43.9,30.26,WSW,258,0.0,0.0,97,0.00,,,0.00,0,Wunderground v.1.15,2013-03-09 13:34:00,
2013-03-09 05:45:00,44.4,43.6,30.26,WSW,258,0.0,0.0,97,0.00,,,0.00,0,Wunderground v.1.15,2013-03-09 13:45:00,
2013-03-09 05:50:00,44.2,43.4,30.26,WSW,258,0.0,0.0,97,0.00,,,0.00,0,Wunderground v.1.15,2013-03-09 13:50:00,
2013-03-09 05:59:00,44.2,43.4,30.27,West,263,0.0,0.0,97,0.00,,,0.00,0,Wunderground v.1.15,2013-03-09 13:59:00,
2013-03-09 06:09:00,43.9,43.1,30.28,West,261,0.0,0.0,97,0.00,,,0.00,0,Wunderground v.1.15,2013-03-09 14:09:00,
2013-03-09 06:14:00,43.8,43.0,30.28,West,261,0.0,0.0,97,0.00,,,0.00,0,Wunderground v.1.15,2013-03-09 14:14:00,
2013-03-09 06:19:00,43.7,42.9,30.28,West,261,0.0,0.0,97,0.00,,,0.00,0,Wunderground v.1.15,2013-03-09 14:19:00,
2013-03-09 06:29:00,43.5,42.7,30.28,West,261,0.0,0.0,97,0.00,,,0.00,0,Wunderground v.1.15,2013-03-09 14:29:00,
2013-03-09 06:34:00,43.5,43.0,30.28,West,261,0.0,0.0,98,0.00,,,0.00,0,Wunderground v.1.15,2013-03-09 14:34:00,
2013-03-09 06:39:00,43.4,42.9,30.28,West,261,0.0,0.0,98,0.00,,,0.00,0,Wunderground v.1.15,2013-03-09 14:39:00,
2013-03-09 06:49:00,43.3,42.8,30.28,West,261,0.0,0.0,98,0.00,,,0.00,0,Wunderground v.1.15,2013-03-09 14:49:00,
2013-03-09 06:55:00,43.3,43.0,30.29,West,261,0.0,0.0,99,0.00,,,0.00,0,Wunderground v.1.15,2013-03-09 14:55:00,
2013-03-09 07:04:00,43.5,43.2,30.29,West,261,1.0,1.0,99,0.00,,,0.00,0,Wunderground v.1.15,2013-03-09 15:04:00,
2013-03-09 07:09:00,43.5,43.2,30.30,West,261,0.0,0.0,99,0.00,,,0.00,0,Wunderground v.1.15,2013-03-09 15:09:00,
2013-03-09 07:19:00,43.7,43.4,30.30,West,261,0.0,0.0,99,0.00,,,0.00,0,Wunderground v.1.15,2013-03-09 15:19:00,
2013-03-09 07:24:00,43.9,43.9,30.30,West,261,0.0,0.0,100,0.00,,,0.00,0,Wunderground v.1.15,2013-03-09 15:24:00,
2013-03-09 07:35:00,44.2,44.2,30.30,West,261,1.0,1.0,100,0.00,,,0.00,0,Wunderground v.1.15,2013-03-09 15:35:00,
2013-03-09 07:40:00,44.3,44.3,30.31,West,261,0.0,0.0,100,0.00,,,0.00,0,Wunderground v.1.15,2013-03-09 15:40:00,
2013-03-09 07:49:00,44.8,44.8,30.31,West,261,1.0,1.0,100,0.00,,,0.00,0,Wunderground v.1.15,2013-03-09 15:49:00,
2013-03-09 07:59:00,45.2,44.9,30.32,WNW,289,1.0,1.0,99,0.00,,,0.00,0,Wunderground v.1.15,2013-03-09 15:59:00,
2013-03-09 08:04:00,45.3,45.0,30.32,WNW,289,1.0,1.0,99,0.00,,,0.00,0,Wunderground v.1.15,2013-03-09 16:04:00,
2013-03-09 08:09:00,45.6,45.6,30.32,WNW,289,0.0,0.0,100,0.00,,,0.00,0,Wunderground v.1.15,2013-03-09 16:09:00,
2013-03-09 08:20:00,46.3,46.0,30.32,WNW,289,0.0,0.0,99,0.00,,,0.00,0,Wunderground v.1.15,2013-03-09 16:20:00,
2013-03-09 08:29:00,47.0,46.7,30.32,SSW,212,0.0,0.0,99,0.00,,,0.00,0,Wunderground v.1.15,2013-03-09 16:29:00,
2013-03-09 08:39:00,48.4,47.6,30.33,SSW,196,1.0,1.0,97,0.00,,,0.00,0,Wunderground v.1.15,2013-03-09 16:39:00,
2013-03-09 08:45:00,48.4,47.3,30.34,NW,311,2.0,2.0,96,0.00,,,0.00,0,Wunderground v.1.15,2013-03-09 16:45:00,
2013-03-09 08:50:00,48.7,47.6,30.33,WNW,287,2.0,2.0,96,0.00,,,0.00,0,Wunderground v.1.15,2013-03-09 16:50:00,
2013-03-09 08:59:00,49.2,47.5,30.34,South,190,0.0,0.0,94,0.00,,,0.00,0,Wunderground v.1.15,2013-03-09 16:59:00,
2013-03-09 09:09:00,49.5,47.0,30.33,WNW,295,0.0,0.0,91,0.00,,,0.00,0,Wunderground v.1.15,2013-03-09 17:09:00,
2013-03-09 09:20:00,49.6,46.5,30.34,NNW,335,0.0,0.0,89,0.00,,,0.00,0,Wunderground v.1.15,2013-03-09 17:20:00,
2013-03-09 09:29:00,50.5,46.8,30.34,NW,305,2.0,2.0,87,0.00,,,0.00,0,Wunderground v.1.15,2013-03-09 17:29:00,
2013-03-09 09:39:00,50.6,45.9,30.35,North,354,0.0,0.0,84,0.00,,,0.00,0,Wunderground v.1.15,2013-03-09 17:39:00,
2013-03-09 09:45:00,50.7,46.0,30.35,WNW,297,2.0,2.0,84,0.00,,,0.00,0,Wunderground v.1.15,2013-03-09 17:45:00,
2013-03-09 09:50:00,51.0,46.0,30.35,NW,325,3.0,3.0,83,0.00,,,0.00,0,Wunderground v.1.15,2013-03-09 17:50:00,
2013-03-09 09:59:00,51.7,46.7,30.34,NNW,333,1.0,1.0,83,0.00,,,0.00,0,Wunderground v.1.15,2013-03-09 17:59:00,
2013-03-09 10:05:00,52.2,46.9,30.34,South,185,1.0,1.0,82,0.00,,,0.00,0,Wunderground v.1.15,2013-03-09 18:05:00,
2013-03-09 10:14:00,53.8,47.4,30.35,SSW,212,2.0,3.0,79,0.00,,,0.00,0,Wunderground v.1.15,2013-03-09 18:14:00,
2013-03-09 10:19:00,53.8,47.1,30.35,ENE,70,1.0,1.0,78,0.00,,,0.00,0,Wunderground v.1.15,2013-03-09 18:19:00,
2013-03-09 10:29:00,54.7,47.6,30.35,SSW,205,0.0,0.0,77,0.00,,,0.00,0,Wunderground v.1.15,2013-03-09 18:29:00,
2013-03-09 10:35:00,55.5,47.7,30.35,WNW,299,1.0,1.0,75,0.00,,,0.00,0,Wunderground v.1.15,2013-03-09 18:35:00,
2013-03-09 10:40:00,55.8,47.6,30.36,SW,215,0.0,0.0,74,0.00,,,0.00,0,Wunderground v.1.15,2013-03-09 18:40:00,
2013-03-09 10:49:00,56.4,47.9,30.36,SSW,198,2.0,2.0,73,0.00,,,0.00,0,Wunderground v.1.15,2013-03-09 18:49:00,
2013-03-09 10:59:00,56.9,47.2,30.36,SW,223,1.0,1.0,70,0.00,,,0.00,0,Wunderground v.1.15,2013-03-09 18:59:00,
2013-03-09 11:04:00,57.1,47.0,30.36,SSW,194,3.0,3.0,69,0.00,,,0.00,0,Wunderground v.1.15,2013-03-09 19:04:00,
2013-03-09 11:09:00,57.0,46.5,30.37,SSW,202,1.0,1.0,68,0.00,,,0.00,0,Wunderground v.1.15,2013-03-09 19:09:00,
2013-03-09 11:19:00,58.1,47.2,30.37,NNW,333,3.0,3.0,67,0.00,,,0.00,0,Wunderground v.1.15,2013-03-09 19:19:00,
2013-03-09 11:29:00,57.2,45.5,30.36,North,0,1.0,1.0,65,0.00,,,0.00,0,Wunderground v.1.15,2013-03-09 19:29:00,
2013-03-09 11:34:00,57.1,45.8,30.36,NE,35,1.0,1.0,66,0.00,,,0.00,0,Wunderground v.1.15,2013-03-09 19:34:00,
2013-03-09 11:39:00,57.8,46.5,30.37,North,5,3.0,3.0,66,0.00,,,0.00,0,Wunderground v.1.15,2013-03-09 19:39:00,
2013-03-09 11:49:00,58.8,46.6,30.37,NW,325,2.0,2.0,64,0.00,,,0.00,0,Wunderground v.1.15,2013-03-09 19:49:00,
2013-03-09 11:55:00,59.1,46.5,30.37,South,183,2.0,2.0,63,0.00,,,0.00,0,Wunderground v.1.15,2013-03-09 19:55:00,
2013-03-09 12:04:00,59.8,45.4,30.36,North,10,10.0,10.0,59,0.00,,,0.00,0,Wunderground v.1.15,2013-03-09 20:04:00,
2013-03-09 12:09:00,60.2,44.9,30.36,North,11,6.0,6.0,57,0.00,,,0.00,0,Wunderground v.1.15,2013-03-09 20:09:00,
2013-03-09 12:19:00,60.7,44.4,30.36,North,358,6.0,6.0,55,0.00,,,0.00,0,Wunderground v.1.15,2013-03-09 20:19:00,
2013-03-09 12:25:00,61.0,44.2,30.35,North,7,8.0,8.0,54,0.00,,,0.00,0,Wunderground v.1.15,2013-03-09 20:25:00,
2013-03-09 12:30:00,61.4,43.6,30.35,NNE,16,8.0,8.0,52,0.00,,,0.00,0,Wunderground v.1.15,2013-03-09 20:30:00,
2013-03-09 12:39:00,61.2,44.9,30.35,NNE,13,8.0,8.0,55,0.00,,,0.00,0,Wunderground v.1.15,2013-03-09 20:39:00,
2013-03-09 12:49:00,61.7,44.4,30.35,NNE,15,3.0,3.0,53,0.00,,,0.00,0,Wunderground v.1.15,2013-03-09 20:49:00,
2013-03-09 13:00:00,62.0,44.7,30.35,NE,52,4.0,4.0,53,0.00,,,0.00,0,Wunderground v.1.15,2013-03-09 21:00:00,
2013-03-09 13:09:00,62.0,44.7,30.35,North,2,5.0,5.0,53,0.00,,,0.00,0,Wunderground v.1.15,2013-03-09 21:09:00,
2013-03-09 13:19:00,63.6,43.0,30.35,NNW,348,7.0,7.0,47,0.00,,,0.00,0,Wunderground v.1.15,2013-03-09 21:19:00,
2013-03-09 13:25:00,63.5,41.8,30.34,NNW,343,8.0,8.0,45,0.00,,,0.00,0,Wunderground v.1.15,2013-03-09 21:25:00,
2013-03-09 13:30:00,63.7,43.1,30.34,North,351,9.0,9.0,47,0.00,,,0.00,0,Wunderground v.1.15,2013-03-09 21:30:00,
2013-03-09 13:39:00,64.0,42.8,30.34,North,359,3.0,3.0,46,0.00,,,0.00,0,Wunderground v.1.15,2013-03-09 21:39:00,
2013-03-09 13:45:00,64.4,43.7,30.34,North,5,10.0,10.0,47,0.00,,,0.00,0,Wunderground v.1.15,2013-03-09 21:45:00,
2013-03-09 13:54:00,64.1,43.4,30.34,NNE,14,12.0,12.0,47,0.00,,,0.00,0,Wunderground v.1.15,2013-03-09 21:54:00,
2013-03-09 13:59:00,64.3,44.7,30.34,NE,35,4.0,4.0,49,0.00,,,0.00,0,Wunderground v.1.15,2013-03-09 21:59:00,
2013-03-09 14:09:00,64.8,44.1,30.34,NNE,30,14.0,14.0,47,0.00,,,0.00,0,Wunderground v.1.15,2013-03-09 22:09:00,
2013-03-09 14:19:00,64.9,44.2,30.34,NNE,23,10.0,10.0,47,0.00,,,0.00,0,Wunderground v.1.15,2013-03-09 22:19:00,
2013-03-09 14:25:00,64.9,43.6,30.34,North,6,9.0,10.0,46,0.00,,,0.00,0,Wunderground v.1.15,2013-03-09 22:25:00,
2013-03-09 14:30:00,65.1,44.4,30.34,NNW,337,9.0,9.0,47,0.00,,,0.00,0,Wunderground v.1.15,2013-03-09 22:30:00,
2013-03-09 14:39:00,65.4,44.6,30.34,NNW,338,7.0,7.0,47,0.00,,,0.00,0,Wunderground v.1.15,2013-03-09 22:39:00,
2013-03-09 14:54:00,65.6,44.8,30.33,NW,321,5.0,5.0,47,0.00,,,0.00,0,Wunderground v.1.15,2013-03-09 22:54:00,
2013-03-09 14:59:00,65.9,45.1,30.34,NNE,27,5.0,5.0,47,0.00,,,0.00,0,Wunderground v.1.15,2013-03-09 22:59:00,
2013-03-09 15:09:00,66.8,43.0,30.34,NNE,23,5.0,5.0,42,0.00,,,0.00,0,Wunderground v.1.15,2013-03-09 23:09:00,
2013-03-09 15:15:00,66.6,42.8,30.34,NNW,336,10.0,10.0,42,0.00,,,0.00,0,Wunderground v.1.15,2013-03-09 23:15:00,
2013-03-09 15:20:00,66.4,42.6,30.34,North,3,9.0,9.0,42,0.00,,,0.00,0,Wunderground v.1.15,2013-03-09 23:20:00,
2013-03-09 15:29:00,66.2,41.2,30.33,NNW,327,10.0,10.0,40,0.00,,,0.00,0,Wunderground v.1.15,2013-03-09 23:29:00,
2013-03-09 15:39:00,66.4,40.7,30.33,NNE,26,10.0,10.0,39,0.00,,,0.00,0,Wunderground v.1.15,2013-03-09 23:39:00,
2013-03-09 15:44:00,66.5,40.8,30.33,North,3,4.0,10.0,39,0.00,,,0.00,0,Wunderground v.1.15,2013-03-09 23:44:00,
2013-03-09 15:49:00,66.6,41.5,30.34,NNE,12,12.0,12.0,40,0.00,,,0.00,0,Wunderground v.1.15,2013-03-09 23:49:00,
2013-03-09 15:59:00,66.5,41.4,30.34,North,7,9.0,9.0,40,0.00,,,0.00,0,Wunderground v.1.15,2013-03-09 23:59:00,
2013-03-09 16:05:00,66.1,46.4,30.33,WNW,301,3.0,9.0,49,0.00,,,0.00,0,Wunderground v.1.15,2013-03-10 00:05:00,
2013-03-09 16:10:00,65.5,46.9,30.33,WNW,284,6.0,6.0,51,0.00,,,0.00,0,Wunderground v.1.15,2013-03-10 00:10:00,
2013-03-09 16:19:00,64.9,47.9,30.34,NW,315,3.0,3.0,54,0.00,,,0.00,0,Wunderground v.1.15,2013-03-10 00:19:00,
2013-03-09 16:29:00,64.2,48.2,30.34,WNW,286,2.0,2.0,56,0.00,,,0.00,0,Wunderground v.1.15,2013-03-10 00:29:00,
2013-03-09 16:34:00,64.1,48.5,30.34,NW,308,1.0,2.0,57,0.00,,,0.00,0,Wunderground v.1.15,2013-03-10 00:34:00,
2013-03-09 16:44:00,64.1,47.6,30.34,NW,312,3.0,3.0,55,0.00,,,0.00,0,Wunderground v.1.15,2013-03-10 00:44:00,
2013-03-09 16:49:00,64.0,47.5,30.34,WNW,299,4.0,4.0,55,0.00,,,0.00,0,Wunderground v.1.15,2013-03-10 00:49:00,
2013-03-09 16:54:00,63.9,47.9,30.34,NW,320,5.0,5.0,56,0.00,,,0.00,0,Wunderground v.1.15,2013-03-10 00:54:00,
2013-03-09 16:59:00,63.9,47.9,30.34,WNW,300,5.0,5.0,56,0.00,,,0.00,0,Wunderground v.1.15,2013-03-10 00:59:00,
2013-03-09 17:09:00,63.7,48.2,30.34,NW,321,1.0,1.0,57,0.00,,,0.00,0,Wunderground v.1.15,2013-03-10 01:09:00,
2013-03-09 17:15:00,63.6,48.5,30.35,WNW,295,5.0,5.0,58,0.00,,,0.00,0,Wunderground v.1.15,2013-03-10 01:15:00,
2013-03-09 17:20:00,63.5,48.5,30.35,WNW,293,1.0,1.0,58,0.00,,,0.00,0,Wunderground v.1.15,2013-03-10 01:20:00,
2013-03-09 17:29:00,63.2,48.6,30.35,WNW,290,4.0,4.0,59,0.00,,,0.00,0,Wunderground v.1.15,2013-03-10 01:29:00,
2013-03-09 17:35:00,62.9,48.8,30.35,WNW,287,3.0,4.0,60,0.00,,,0.00,0,Wunderground v.1.15,2013-03-10 01:35:00,
2013-03-09 17:40:00,62.5,48.9,30.35,NW,315,2.0,2.0,61,0.00,,,0.00,0,Wunderground v.1.15,2013-03-10 01:40:00,
2013-03-09 17:49:00,61.9,49.2,30.35,NW,310,3.0,3.0,63,0.00,,,0.00,0,Wunderground v.1.15,2013-03-10 01:49:00,
2013-03-09 17:59:00,61.2,49.3,30.35,SW,233,3.0,3.0,65,0.00,,,0.00,0,Wunderground v.1.15,2013-03-10 01:59:00,
2013-03-09 18:04:00,59.8,49.2,30.35,South,191,3.0,3.0,68,0.00,,,0.00,0,Wunderground v.1.15,2013-03-10 02:04:00,
2013-03-09 18:09:00,58.7,48.6,30.36,SSW,192,4.0,4.0,69,0.00,,,0.00,0,Wunderground v.1.15,2013-03-10 02:09:00,
2013-03-09 18:19:00,57.4,48.4,30.36,SSW,196,4.0,4.0,72,0.00,,,0.00,0,Wunderground v.1.15,2013-03-10 02:19:00,
2013-03-09 18:25:00,57.0,48.1,30.36,South,182,3.0,4.0,72,0.00,,,0.00,0,Wunderground v.1.15,2013-03-10 02:25:00,
2013-03-09 18:30:00,56.7,47.8,30.36,South,191,2.0,2.0,72,0.00,,,0.00,0,Wunderground v.1.15,2013-03-10 02:30:00,
2013-03-09 18:39:00,56.2,47.3,30.36,South,186,2.0,2.0,72,0.00,,,0.00,0,Wunderground v.1.15,2013-03-10 02:39:00,
2013-03-09 18:49:00,55.9,47.0,30.36,South,177,0.0,0.0,72,0.00,,,0.00,0,Wunderground v.1.15,2013-03-10 02:49:00,
2013-03-09 18:55:00,55.6,47.1,30.36,South,185,2.0,2.0,73,0.00,,,0.00,0,Wunderground v.1.15,2013-03-10 02:55:00,
2013-03-09 19:00:00,55.4,46.9,30.37,South,185,2.0,2.0,73,0.00,,,0.00,0,Wunderground v.1.15,2013-03-10 03:00:00,
2013-03-09 19:09:00,54.9,46.4,30.36,South,185,0.0,0.0,73,0.00,,,0.00,0,Wunderground v.1.15,2013-03-10 03:09:00,
2013-03-09 19:19:00,54.5,46.7,30.36,South,185,0.0,0.0,75,0.00,,,0.00,0,Wunderground v.1.15,2013-03-10 03:19:00,
2013-03-09 19:24:00,54.3,46.2,30.37,South,184,3.0,3.0,74,0.00,,,0.00,0,Wunderground v.1.15,2013-03-10 03:24:00,
2013-03-09 19:29:00,54.2,46.1,30.37,South,175,0.0,0.0,74,0.00,,,0.00,0,Wunderground v.1.15,2013-03-10 03:29:00,
2013-03-09 19:39:00,53.9,45.8,30.37,SSW,192,0.0,0.0,74,0.00,,,0.00,0,Wunderground v.1.15,2013-03-10 03:39:00,
2013-03-09 19:49:00,53.2,45.5,30.37,SSW,192,0.0,0.0,75,0.00,,,0.00,0,Wunderground v.1.15,2013-03-10 03:49:00,
2013-03-09 19:55:00,52.7,45.3,30.36,SSW,192,0.0,0.0,76,0.00,,,0.00,0,Wunderground v.1.15,2013-03-10 03:55:00,
2013-03-09 20:00:00,52.4,45.4,30.37,SSW,192,0.0,0.0,77,0.00,,,0.00,0,Wunderground v.1.15,2013-03-10 04:00:00,
2013-03-09 20:09:00,51.8,45.8,30.37,SSW,193,0.0,0.0,80,0.00,,,0.00,0,Wunderground v.1.15,2013-03-10 04:09:00,
2013-03-09 20:19:00,51.5,45.2,30.37,South,179,2.0,2.0,79,0.00,,,0.00,0,Wunderground v.1.15,2013-03-10 04:19:00,
2013-03-09 20:24:00,51.3,45.0,30.38,South,179,1.0,2.0,79,0.00,,,0.00,0,Wunderground v.1.15,2013-03-10 04:24:00,
2013-03-09 20:29:00,51.1,44.8,30.38,South,180,0.0,0.0,79,0.00,,,0.00,0,Wunderground v.1.15,2013-03-10 04:29:00,
2013-03-09 20:40:00,50.6,45.0,30.38,South,179,1.0,1.0,81,0.00,,,0.00,0,Wunderground v.1.15,2013-03-10 04:40:00,
2013-03-09 20:49:00,50.1,44.2,30.39,South,179,0.0,0.0,80,0.00,,,0.00,0,Wunderground v.1.15,2013-03-10 04:49:00,
2013-03-09 20:55:00,49.9,44.3,30.39,South,179,1.0,1.0,81,0.00,,,0.00,0,Wunderground v.1.15,2013-03-10 04:55:00,
2013-03-09 21:00:00,49.7,44.1,30.39,South,172,4.0,4.0,81,0.00,,,0.00,0,Wunderground v.1.15,2013-03-10 05:00:00,
2013-03-09 21:04:00,49.3,43.4,30.39,SSE,167,2.0,4.0,80,0.00,,,0.00,0,Wunderground v.1.15,2013-03-10 05:04:00,
2013-03-09 21:14:00,49.1,43.5,30.39,South,185,3.0,3.0,81,0.00,,,0.00,0,Wunderground v.1.15,2013-03-10 05:14:00,
2013-03-09 21:19:00,49.3,43.7,30.40,SSW,193,2.0,2.0,81,0.00,,,0.00,0,Wunderground v.1.15,2013-03-10 05:19:00,
2013-03-09 21:24:00,49.3,43.7,30.40,South,184,2.0,2.0,81,0.00,,,0.00,0,Wunderground v.1.15,2013-03-10 05:24:00,
2013-03-09 21:29:00,49.1,43.5,30.40,South,184,1.0,1.0,81,0.00,,,0.00,0,Wunderground v.1.15,2013-03-10 05:29:00,
2013-03-09 21:34:00,49.0,43.4,30.40,South,184,2.0,2.0,81,0.00,,,0.00,0,Wunderground v.1.15,2013-03-10 05:34:00,
2013-03-09 21:39:00,48.8,43.2,30.40,South,184,0.0,0.0,81,0.00,,,0.00,0,Wunderground v.1.15,2013-03-10 05:39:00,
2013-03-09 21:45:00,48.5,42.9,30.39,South,184,1.0,1.0,81,0.00,,,0.00,0,Wunderground v.1.15,2013-03-10 05:45:00,
2013-03-09 21:50:00,48.3,42.7,30.39,South,184,0.0,0.0,81,0.00,,,0.00,0,Wunderground v.1.15,2013-03-10 05:50:00,
2013-03-09 21:59:00,48.2,43.0,30.40,South,186,1.0,1.0,82,0.00,,,0.00,0,Wunderground v.1.15,2013-03-10 05:59:00,
2013-03-09 22:10:00,47.7,42.8,30.40,South,171,1.0,1.0,83,0.00,,,0.00,0,Wunderground v.1.15,2013-03-10 06:10:00,
2013-03-09 22:19:00,47.7,42.5,30.40,South,177,1.0,1.0,82,0.00,,,0.00,0,Wunderground v.1.15,2013-03-10 06:19:00,
2013-03-09 22:29:00,47.9,42.7,30.40,South,180,0.0,0.0,82,0.00,,,0.00,0,Wunderground v.1.15,2013-03-10 06:29:00,
2013-03-09 22:35:00,47.9,42.3,30.41,South,180,0.0,0.0,81,0.00,,,0.00,0,Wunderground v.1.15,2013-03-10 06:35:00,
2013-03-09 22:40:00,47.7,42.2,30.41,South,180,0.0,0.0,81,0.00,,,0.00,0,Wunderground v.1.15,2013-03-10 06:40:00,
2013-03-09 22:49:00,47.1,41.9,30.40,SSE,166,2.0,2.0,82,0.00,,,0.00,0,Wunderground v.1.15,2013-03-10 06:49:00,
2013-03-09 22:55:00,46.9,41.7,30.40,SSE,161,2.0,2.0,82,0.00,,,0.00,0,Wunderground v.1.15,2013-03-10 06:55:00,
2013-03-09 23:04:00,46.4,41.2,30.40,SSE,158,0.0,0.0,82,0.00,,,0.00,0,Wunderground v.1.15,2013-03-10 07:04:00,
2013-03-09 23:09:00,46.1,40.9,30.40,SSE,158,0.0,0.0,82,0.00,,,0.00,0,Wunderground v.1.15,2013-03-10 07:09:00,
2013-03-09 23:19:00,45.5,40.9,30.40,ESE,102,0.0,0.0,84,0.00,,,0.00,0,Wunderground v.1.15,2013-03-10 07:19:00,
2013-03-09 23:25:00,45.3,41.1,30.40,ESE,102,1.0,1.0,85,0.00,,,0.00,0,Wunderground v.1.15,2013-03-10 07:25:00,
2013-03-09 23:30:00,45.2,40.7,30.40,ESE,102,0.0,0.0,84,0.00,,,0.00,0,Wunderground v.1.15,2013-03-10 07:30:00,
2013-03-09 23:39:00,45.0,40.8,30.40,ESE,102,0.0,0.0,85,0.00,,,0.00,0,Wunderground v.1.15,2013-03-10 07:39:00,
2013-03-09 23:49:00,44.5,40.3,30.40,ESE,102,0.0,0.0,85,0.00,,,0.00,0,Wunderground v.1.15,2013-03-10 07:49:00,
2013-03-09 23:54:00,44.4,40.2,30.40,ESE,102,0.0,0.0,85,0.00,,,0.00,0,Wunderground v.1.15,2013-03-10 07:54:00,
2013-03-09 23:59:00,44.2,40.0,30.40,ESE,102,0.0,0.0,85,0.00,,,0.00,0,Wunderground v.1.15,2013-03-10 07:59:00,